[[{"header":{"parameterUnit":"m.s-1","parameterCategory":1,"la1":30.2991,"la2":30.254,"lo1":-89.0895,"lo2":-89.0444,"dy":0.0017,"dx":0.0017,"nx":28,"ny":28,"refTime":"2024-08-03T21:00:00:Z","depth":0,"parameterNumber":2,"parameterNumberName":"U-component_of_WINDS"},"data":[0,0,0,0,0,0,0,0,0,0,0,0,0,0,0,0,0,0,0,0,0,0,0,0,0,0,0,0,0,0,0,0,0,0,0,0,0,0,0,0,0,0,0,0,0,0,0,0,0,0,0,0,0,0,0,0,0,0,0.4644,0.4645,0,0.4716,0.4717,0.4718,0.472,0.472,0.4719,0.4718,0.4796,0.4799,0.4801,0,0,0,0,0,0,0,0,0,0,0,0,0,0.4508,0.451,0.4644,0.4645,0.4646,0.4716,0.4717,0.4718,0.4721,0.472,0.4718,0.4717,0.4795,0.4798,0.4802,0,0,0,0,0,0,0,0,0,0,0,0,0,0.4573,0.4511,0.4644,0.4655,0.4657,0.4716,0.4717,0.4719,0.4721,0.472,0.4718,0.4717,0.4794,0.4798,0.4802,0.4856,0,0,0.4816,0.4817,0,0,0,0,0,0,0,0,0.4569,0.4578,0.4653,0.4655,0.4657,0.4708,0.4698,0.4765,0.4721,0.4697,0.4718,0.4716,0.4768,0.4774,0.4791,0.4859,0.4863,0.4816,0.4819,0.482,0.4822,0,0,0,0,0,0,0,0.4564,0.4574,0.4673,0.4654,0.4656,0.4657,0.4665,0.4711,0.4739,0.4699,0.4699,0.4707,0.4769,0.4787,0.4793,0.4864,0.4816,0.482,0.4822,0.4824,0.4976,0.4978,0,0,0,0,0,0,0.4557,0.4571,0.467,0.4675,0.4608,0.466,0.4669,0.4693,0.4738,0.4744,0.4708,0.4707,0.478,0.4788,0.4796,0.4859,0.482,0.4824,0.4827,0.4975,0.4977,0.4978,0,0,0,0,0,0,0.4554,0.4566,0.4667,0.4623,0.4636,0.4664,0.4691,0.4695,0.4713,0.4746,0.4751,0.4722,0.4779,0.4789,0.484,0.4862,0.4826,0.483,0.4973,0.4976,0.4978,0.4988,0,0,0,0,0,0,0.455,0.4565,0.4586,0.4623,0.4638,0.471,0.4692,0.4697,0.472,0.4719,0.476,0.4765,0.4779,0.4833,0.4844,0.4867,0.4834,0.4971,0.4974,0.4977,0.4986,0.4991,0.4994,0,0,0,0,0,0.4546,0.4588,0.4587,0.4599,0.4665,0.4712,0.472,0.4734,0.4722,0.4743,0.4763,0.4764,0.4857,0.4838,0.4851,0.4876,0.497,0.4974,0.4977,0.4984,0.499,0.4994,0,0,0,0,0,0,0.4555,0.4593,0.4593,0.4648,0.4676,0.4712,0.4739,0.474,0.4774,0.4772,0.4789,0.4798,0.4847,0.4867,0.4845,0.4928,0.4912,0.4918,0.4914,0.4919,0.4923,0.4918,0.4837,0,0,0,0,0,0.4563,0.4597,0.4629,0.4674,0.4688,0.4711,0.4732,0.474,0.4771,0.4783,0.4808,0.4838,0.4874,0.4898,0.4933,0.4988,0.4996,0.5011,0.5015,0.5018,0.5024,0.5052,0.5058,0.4989,0.4989,0.4989,0,0,0.4581,0.4605,0.4627,0.4677,0.47,0.4735,0.4721,0.476,0.4786,0.479,0.4838,0.4856,0.4891,0.4943,0.4968,0.4961,0.5044,0.5023,0.5025,0.5028,0.5056,0.5062,0.5068,0.4991,0.4991,0.499,0,0,0.463,0.4653,0.4692,0.4715,0.4748,0.4763,0.4772,0.4806,0.4818,0.4866,0.4869,0.49,0.4963,0.4986,0.5007,0.5061,0.5062,0.5072,0.5094,0.5121,0.5126,0.5131,0.5149,0.5156,0.5077,0.5077,0.5077,0,0.4649,0.4701,0.4713,0.475,0.4771,0.4773,0.4813,0.4834,0.4878,0.4893,0.4884,0.4959,0.4984,0.504,0.5053,0.5069,0.508,0.5068,0.5124,0.5129,0.5134,0.5152,0.5158,0.5077,0.5077,0.5077,0.5077,0,0.4721,0.4757,0.4784,0.4824,0.4849,0.4887,0.4904,0.4927,0.4932,0.4946,0.4994,0.5022,0.5061,0.5075,0.5082,0.5132,0.5126,0.5121,0.5106,0.5141,0.5158,0.5165,0.5079,0.5078,0.5078,0.5078,0,0,0.4782,0.4824,0.4834,0.4851,0.4886,0.4915,0.4952,0.4988,0.5007,0.5037,0.5068,0.5118,0.5112,0.5135,0.5144,0.5167,0.5206,0.5159,0.516,0.5166,0.5261,0.5265,0.5272,0.5206,0.5208,0.5209,0.5258,0,0.4835,0.49,0.491,0.4968,0.5,0.5,0.5032,0.5057,0.5071,0.5101,0.5117,0.5151,0.5141,0.5155,0.5178,0.5196,0.5225,0.5193,0.5235,0.5237,0.5227,0.5281,0.5286,0.5331,0.5264,0.5266,0.5266,0,0.4906,0.4935,0.4995,0.5023,0.5037,0.5065,0.5098,0.5126,0.5154,0.5162,0.5185,0.519,0.5228,0.521,0.5261,0.5239,0.5256,0.5268,0.527,0.5275,0.5254,0.5287,0.5346,0.5353,0.5277,0.5276,0.5275,0,0.4943,0.4996,0.5038,0.5053,0.5087,0.5107,0.5122,0.5148,0.5168,0.5197,0.521,0.5243,0.5261,0.5286,0.5299,0.5285,0.535,0.5333,0.5357,0.5357,0.5372,0.5371,0.5434,0.5383,0.5383,0.5383,0.5383,0,0.5001,0.5038,0.5054,0.5081,0.5121,0.5131,0.5171,0.5185,0.5208,0.5236,0.5239,0.5266,0.5281,0.531,0.532,0.536,0.5369,0.5376,0.5379,0.5376,0.5375,0.5388,0.5385,0.5385,0.5384,0.5384,0.5384,0,0.5049,0.5062,0.5108,0.5135,0.5142,0.517,0.5194,0.5219,0.5231,0.5266,0.5276,0.5295,0.5329,0.5344,0.5386,0.5393,0.5438,0.5439,0.5428,0.5429,0.5452,0.5449,0.5526,0.5536,0.5479,0.5479,0.548,0,0.5085,0.5113,0.5142,0.516,0.5175,0.5205,0.5225,0.5235,0.5256,0.5287,0.5307,0.534,0.5368,0.5421,0.544,0.5471,0.5472,0.5496,0.5477,0.5472,0.5471,0.5469,0.5471,0.55,0.5501,0.5501,0.5502,0,0.5148,0.5152,0.518,0.5209,0.5231,0.5255,0.5279,0.5294,0.5307,0.533,0.5363,0.5384,0.5425,0.5457,0.5489,0.5505,0.5505,0.5507,0.5514,0.5512,0.5504,0.5508,0.5438,0.5506,0.5505,0.5505,0.5505,0.5505,0.5191,0.5214,0.5237,0.5267,0.5285,0.5306,0.5329,0.5343,0.537,0.5404,0.5408,0.5443,0.5467,0.5509,0.5526,0.5553,0.5548,0.5558,0.5561,0.5563,0.5564,0.55,0.5559,0.5559,0.5559,0.5559,0.5559,0,0.5252,0.5266,0.5293,0.5324,0.5347,0.5343,0.5368,0.5388,0.5418,0.544,0.5465,0.5502,0.5533,0.5552,0.5582,0.56,0.5601,0.5608,0.5607,0.561,0.5568,0.5558,0.5607,0.5607,0.5607,0.5607,0.5607,0.5607,0.5287,0.5325,0.5332,0.5378,0.5392,0.5425,0.5439,0.5458,0.5475,0.5515,0.554,0.5551,0.5572,0.5603,0.5631,0.5635,0.5646,0.5653,0.5658,0.5618,0.5613,0.5609,0.56,0.5656,0.5656,0.5697,0.5698,0.5698]},{"header":{"parameterUnit":"m.s-1","parameterCategory":1,"la1":30.2991,"la2":30.254,"lo1":-89.0895,"lo2":-89.0444,"dy":0.0017,"dx":0.0017,"nx":28,"ny":28,"refTime":"2024-08-03T21:00:00:Z","depth":0,"parameterNumber":3,"parameterNumberName":"V-component_of_WINDS"},"data":[0,0,0,0,0,0,0,0,0,0,0,0,0,0,0,0,0,0,0,0,0,0,0,0,0,0,0,0,0,0,0,0,0,0,0,0,0,0,0,0,0,0,0,0,0,0,0,0,0,0,0,0,0,0,0,0,0,0,3.929,3.929,0,3.9302,3.9303,3.9303,3.9267,3.9266,3.9265,3.9264,3.9274,3.9276,3.9277,0,0,0,0,0,0,0,0,0,0,0,0,0,3.9231,3.9232,3.929,3.929,3.929,3.9302,3.9303,3.9303,3.9267,3.9266,3.9265,3.9263,3.9274,3.9275,3.9277,0,0,0,0,0,0,0,0,0,0,0,0,0,3.9251,3.9232,3.929,3.9274,3.9273,3.9302,3.9303,3.9303,3.9268,3.9266,3.9264,3.9263,3.9273,3.9275,3.9277,3.9322,0,0,3.9283,3.9284,0,0,0,0,0,0,0,0,3.925,3.9253,3.9276,3.9275,3.9274,3.9282,3.9285,3.9309,3.9268,3.9269,3.9264,3.9262,3.9278,3.9279,3.9285,3.9322,3.9323,3.9283,3.9284,3.9285,3.9286,0,0,0,0,0,0,0,3.9249,3.9253,3.9295,3.9277,3.9275,3.9265,3.9266,3.929,3.9283,3.9269,3.9267,3.9269,3.9277,3.9283,3.9285,3.9323,3.9283,3.9285,3.9286,3.9287,3.9393,3.9394,0,0,0,0,0,0,3.925,3.9252,3.9294,3.9295,3.9258,3.9267,3.9268,3.9281,3.9282,3.9281,3.927,3.9267,3.9281,3.9283,3.9285,3.9334,3.9285,3.9287,3.9288,3.9391,3.9393,3.9395,0,0,0,0,0,0,3.9249,3.9254,3.9294,3.9273,3.9277,3.927,3.9284,3.9282,3.9288,3.9283,3.9281,3.9278,3.928,3.9283,3.9312,3.9334,3.9288,3.929,3.9389,3.9392,3.9394,3.9435,0,0,0,0,0,0,3.9247,3.9254,3.9272,3.9273,3.9278,3.9322,3.9286,3.9283,3.9292,3.9288,3.929,3.9289,3.9279,3.9309,3.9314,3.9336,3.9291,3.9387,3.939,3.9393,3.9431,3.9438,3.9444,0,0,0,0,0,3.9245,3.9283,3.9273,3.9278,3.9301,3.9323,3.9326,3.9314,3.9294,3.9311,3.9307,3.9289,3.9332,3.9313,3.9318,3.9341,3.9385,3.9389,3.9393,3.9428,3.9437,3.9444,0,0,0,0,0,0,3.9285,3.9283,3.9272,3.9312,3.9318,3.9317,3.9338,3.9324,3.9335,3.9331,3.9315,3.9315,3.9347,3.9347,3.9326,3.9382,3.9355,3.936,3.938,3.9388,3.9394,3.9392,3.9293,0,0,0,0,0,3.9298,3.9317,3.9315,3.935,3.9354,3.9346,3.9355,3.9345,3.935,3.9353,3.9351,3.9356,3.937,3.9379,3.9393,3.9432,3.943,3.945,3.9456,3.9461,3.9465,3.9482,3.9489,3.9407,3.9407,3.9407,0,0,3.9326,3.9328,3.9341,3.9358,3.9362,3.938,3.9348,3.937,3.9382,3.9356,3.9382,3.9381,3.9386,3.9419,3.9434,3.942,3.9487,3.9466,3.947,3.9471,3.9486,3.9494,3.9501,3.9409,3.9409,3.9409,0,0,3.9385,3.939,3.9418,3.9422,3.9427,3.9421,3.9428,3.9429,3.9427,3.9454,3.9433,3.9447,3.9473,3.9475,3.948,3.9538,3.952,3.9543,3.9575,3.9592,3.9598,3.9604,3.9621,3.9627,3.9547,3.9547,3.9547,0,3.9418,3.9446,3.9434,3.9456,3.9462,3.9439,3.9466,3.947,3.9479,3.9484,3.9469,3.9498,3.95,3.9531,3.9545,3.9551,3.9556,3.9541,3.9598,3.9604,3.9609,3.9625,3.9632,3.9549,3.9549,3.9549,3.9548,0,3.9485,3.9504,3.9526,3.9535,3.9544,3.9569,3.9558,3.9569,3.9558,3.9553,3.9578,3.9579,3.959,3.9598,3.9588,3.9627,3.9618,3.9601,3.9573,3.9619,3.9634,3.964,3.9553,3.9552,3.9551,3.955,0,0,3.9569,3.9569,3.9577,3.9579,3.9582,3.9596,3.9618,3.9629,3.9637,3.9644,3.966,3.9681,3.9664,3.967,3.966,3.9675,3.9715,3.9655,3.9655,3.9663,3.9755,3.9765,3.9772,3.9705,3.9706,3.9707,3.9753,0,3.9624,3.9662,3.965,3.9687,3.9703,3.968,3.9699,3.9702,3.9697,3.9709,3.9704,3.9717,3.9697,3.9699,3.9713,3.9707,3.9733,3.9704,3.9717,3.9717,3.9713,3.9781,3.9792,3.9836,3.9759,3.976,3.9761,0,3.9693,3.9701,3.974,3.9737,3.9744,3.9761,3.9768,3.978,3.9782,3.9777,3.9782,3.9768,3.9787,3.9762,3.9786,3.9767,3.9771,3.9769,3.9771,3.9769,3.974,3.9777,3.985,3.9855,3.977,3.9769,3.9769,0,3.9745,3.9767,3.9791,3.9795,3.9793,3.9805,3.9805,3.9805,3.9812,3.9818,3.9821,3.983,3.9834,3.984,3.9828,3.9811,3.9853,3.9827,3.9847,3.9847,3.9855,3.9854,3.9925,3.9863,3.9863,3.9863,3.9863,0,3.9806,3.983,3.9814,3.9829,3.9854,3.984,3.9865,3.9862,3.9862,3.9875,3.9857,3.9869,3.9853,3.9863,3.9854,3.9873,3.9876,3.9871,3.9868,3.9871,3.9871,3.9872,3.9867,3.9865,3.9864,3.9864,3.9864,0,3.9868,3.9859,3.9884,3.988,3.988,3.9898,3.9894,3.9906,3.99,3.9916,3.9919,3.9909,3.9919,3.9909,3.9919,3.9912,3.9938,3.9932,3.9937,3.9934,3.9953,3.995,4.0025,4.0033,3.9969,3.9969,3.997,0,3.9906,3.9923,3.992,3.9927,3.9928,3.994,3.9946,3.9932,3.9939,3.9941,3.9952,3.9961,3.9968,3.9985,3.9978,3.9985,3.9977,4.0002,3.9978,3.9979,3.9973,3.9971,3.9971,4.0007,4.0007,4.0008,4.0009,0,3.9972,3.9966,3.9975,3.9982,3.9989,3.9994,3.9998,4.0004,3.999,3.9998,4.0008,4.0013,4.0023,4.003,4.0035,4.0033,4.0018,4.0017,4.0021,4.0023,4.0024,4.002,3.9947,4.0015,4.0014,4.0014,4.0013,4.0013,4.002,4.0033,4.0033,4.0042,4.0043,4.0046,4.0057,4.0052,4.006,4.0066,4.0058,4.007,4.0069,4.0073,4.0073,4.0081,4.007,4.0077,4.0079,4.008,4.0081,4.0025,4.0082,4.0082,4.0082,4.0082,4.0082,0,4.0083,4.0081,4.009,4.0095,4.0102,4.0088,4.009,4.0096,4.0107,4.0108,4.0113,4.0124,4.0131,4.0124,4.013,4.0137,4.013,4.0139,4.0137,4.0136,4.0093,4.0087,4.0144,4.0144,4.0144,4.0144,4.0144,4.0144,4.0116,4.0136,4.0129,4.0148,4.0146,4.0157,4.0159,4.0161,4.0161,4.0173,4.0179,4.0175,4.0172,4.0176,4.0182,4.0179,4.0181,4.0191,4.0186,4.0145,4.0139,4.0133,4.0127,4.0193,4.0193,4.0228,4.0229,4.0229]}]]